Location: Alpha Ridge Park
(39.3209°N, 76.9128°W)
Time: 13:17:46
(UTC-04:00)

S-56A Canister/Altair - Pass Details

Date: 25 May 2019
Orbit: 633 x 2499 km, 38.9° (Epoch: 23 June)

Event Time Altitude Azimuth Distance (km) Brightness Sun altitude
Rises 05:08:49 0° 277° (W) 3,854 10.7 -7.1°
Reaches altitude 10° 05:11:06 10° 276° (W) 3,093 10.2 -6.7°
Maximum altitude 05:18:59 83° 190° (S) 1,582 9.1 -5.4°
Drops below altitude 10° 05:31:10 10° 105° (ESE) 4,608 12.2 -3.4°
Sets 05:35:20 0° 105° (ESE) 5,825 12.8 -2.7°
